Regional Weather Roundup
Issued by NWS

Home | Current Version | Previous Version | Text Only | Print | Product List | Glossary On
Versions: 1 2 3 4 5 6 7 8 9 10 11 12 13 14 15 16 17 18 19 20 21 22 23 24 25 26 27 28 29 30 31 32 33 34 35 36 37 38 39 40 41 42 43 44 45 46 47 48 49 50
000
ASCA44 KEWX 270020
RWRMX

LATIN AMERICA AND CARIBBEAN REGIONAL WEATHER ROUNDUP
NATIONAL WEATHER SERVICE AUSTIN/SAN ANTONIO TX
600 PM CST FRI DEC 26 2014

NOTE: "FAIR" INDICATED FEW OR NO CLOUDS BELOW 12,000 FEET WITH NO
SIGNIFICANT WEATHER AND/OR OBSTRUCTIONS TO VISIBILITY.

BAJA CALIFORNIA

CITY           SKY/WX    TMP DP  RH WIND       PRES   REMARKS
LORETO         MOCLDY    68  55  64 N21       29.92R
LA PAZ         MOCLDY    77  57  50 N6        29.92
MEXICALI       CLEAR     59  12  15 NW6       30.07
S.J. DEL CABO  MOCLDY    75  61  60 SE8       29.93S
TIJUANA        CLEAR     59  19  21 NW14      30.06R

NORTHWESTERN MEXICO

CITY           SKY/WX    TMP DP  RH WIND       PRES   REMARKS
CULIACAN       CLOUDY    77  61  57 W8        29.92
DURANGO        MOCLDY    63  32  31 SW15      30.12R
GUAYMAS        MOCLDY    68  48  49 SW9       29.90
HERMOSILLO     MOCLDY    70  41  35 S6        29.95
CD. JUAREZ     DRIZZLE   37  37 100 S7        29.91  WCI  32
LOS MOCHIS     CLOUDY    73  55  53 SW6       29.93S
OBREGON        MOCLDY    72  54  53 SW6       29.91

NORTHEASTERN MEXICO

CITY           SKY/WX    TMP DP  RH WIND       PRES   REMARKS
CHIHUAHUA      MOCLDY    66  23  19 SW23      29.88
MATAMOROS      PTCLDY    70  68  94 SE17      29.90
MONTERREY      MOCLDY    70  50  49 E7        29.85R
NUEVO LAREDO   CLEAR     77  57  50 SE6       29.83
PIEDRAS NEGRAS CLEAR     70  50  49 SE5       29.83S
REYNOSA        PTCLDY    73  59  60 SE12      29.83
SALTILLO       PTCLDY    70  43  37 S12       30.00R
TORREON        MOCLDY    75  34  22 SE3       29.89S
CD. VICTORIA   MOCLDY    70  55  60 SE15      29.87

WESTERN MEXICO

CITY           SKY/WX    TMP DP  RH WIND       PRES   REMARKS
AGUASCALIENTES MOCLDY    64  25  22 W14       30.19
DEL BAJIO      MOCLDY    70  43  37 W10       30.23R
GUADALAJARA    MOCLDY    72  45  37 W3        30.13
MANZANILLO     MOCLDY    81  75  83 W12       29.83
MAZATLAN       PTCLDY    75  64  69 S9        29.90R
P. VALLARTA    MOCLDY    79  70  73 S6        29.90S
URUAPAN        CLOUDY    66  55  68 CALM      30.16S
ZACATECAS      MOCLDY    61  25  25 SW23      30.19R

CENTRAL MEXICO

CITY           SKY/WX    TMP DP  RH WIND       PRES   REMARKS
CUERNAVACA     MOCLDY    73  52  46 CALM      30.09R
MEXICO CITY    MOCLDY    64  45  48 S7        30.26R
MORELIA        MOCLDY    64  48  55 S3        30.20
POZA RICA      MOCLDY    73  66  78 N7        29.92R
PUEBLA         CLOUDY    61  48  63 S9        30.27R
QUERETARO      MOCLDY    66  45  45 W9        30.24R
S. LUIS POTOSI MOCLDY    68  37  32 SW8       30.14R
TAMPICO        MOCLDY    70  61  73 SE15      29.90R
TOLUCA         MOCLDY    57  43  58 S9        30.32S

SOUTHERN MEXICO

CITY           SKY/WX    TMP DP  RH WIND       PRES   REMARKS
ACAPULCO       MOCLDY    82  73  74 W8        29.84R
B. DE HUATULCO PTCLDY    77  68  73 CALM      29.88
OAXACA         MOCLDY    77  46  33 S6        30.13R
P. ESCONDIDO   PTCLDY    81  73  78 S7        29.96S
VERACRUZ       MOCLDY    73  63  68 S5        29.91S
ZIHUATANEJO    MOCLDY    82  73  74 CALM      29.86R

YUCATAN PENINSULA

CITY           SKY/WX    TMP DP  RH WIND       PRES   REMARKS
CAMPECHE       PTCLDY    84  70  61 E5        29.93R
CANCUN         MOCLDY    77  73  88 E5        30.03R
CHETUMAL       MOCLDY    79  73  83 CALM      29.97R
CD. DEL CARMEN CLEAR     81  70  69 E6        29.93
COZUMEL        PTCLDY    72  72 100 E5        30.02R
MERIDA         MOCLDY    81  68  65 E9        29.97R
MINATITLAN     CLOUDY    73  68  83 N7        29.91
TAPACHULA      CLEAR     82  75  78 CALM      29.84R
TUX. GUTIERREZ PTCLDY    75  63  64 NW9       29.90R
VILLAHERMOSA   CLOUDY    73  70  88 CALM      29.94R

CENTRAL AMERICA

CITY           SKY/WX    TMP DP  RH WIND       PRES   REMARKS
BELIZE CITY    PTCLDY    77  73  88 E3        29.98R
MANAGUA        PTCLDY    82  68  61 E12       29.80S

CARIBBEAN

CITY           SKY/WX    TMP DP  RH WIND       PRES   REMARKS
ARUBA          PTCLDY    81  73  78 E17       29.86S
CURACAO        PTCLDY    81  73  78 E16       29.92R
KINGSTON       PTCLDY    86  66  51 SE14      29.94S
NASSAU         MOCLDY    75  72  88 CALM      30.16R
SAN JUAN       PTCLDY    79  72  78 E7        30.05R
SANTO DOMINGO  PTCLDY    77  72  83 NE9       30.00S
ST. CROIX      PTCLDY    75  66  73 NE8       30.05R
ST. KITTS      PTCLDY    75  68  78 NE12      30.03S
ST. MAARTEN    PTCLDY    77  64  65 E8        30.03S

$$



USA.gov is the U.S. government's official web portal to all federal, state and local government web resources and services.